SCP
0 0 0 0 0 0 0 0 0 0 0 0 0 0 0 0 0 0 1 1 1 1 1 1 1 1 1 1 1 0 0 0 0 1 1 1 1 1 1 1 1 0 0 0
0 0 0 0 0 0 0 0 0 0 0 0 0 0 0 0 0 0 1 1 1 1 1 1 1 1 1 0 0 0 0 0 0 0 1 1 1 1 1 1 1 0 0 0
0 0 0 0 0 0 0 0 0 0 0 0 0 0 0 0 0 0 1 1 1 1 1 1 1 1 0 0 0 0 0 0 0 0 0 0 0 0 0 0 0 0 0 0
0 0 0 0 0 0 0 0 0 0 0 0 0 0 0 0 0 0 1 1 1 1 1 1 1 1 0 0 0 0 0 0 0 0 0 0 0 0 0 0 0 0 0 0
0 0 0 0 0 0 0 0 0 0 0 0 0 0 0 0 0 1 1 1 1 1 1 1 1 1 0 0 0 0 0 0 0 0 0 0 0 0 0 0 0 0 0 0
0 0 0 0 0 0 0 0 0 0 0 0 0 0 0 0 0 1 1 1 1 1 1 1 1 1 0 0 0 0 0 0 0 0 0 0 0 0 0 0 0 0 0 0
0 0 0 0 0 0 0 0 0 0 0 0 0 0 0 0 0 0 1 1 1 1 1 1 1 1 0 0 0 0 0 0 0 0 0 0 0 0 0 0 0 0 0 0
0 0 0 0 0 0 0 0 0 0 0 0 0 0 0 0 0 0 1 1 1 1 1 1 1 1 0 0 0 0 0 0 0 0 0 0 0 0 0 0 0 0 0 0
0 0 0 0 0 0 0 0 0 0 0 0 0 0 0 0 0 1 1 1 1 1 1 1 1 1 0 0 0 0 0 0 0 0 0 0 0 0 0 0 0 0 0 0
0 0 0 0 0 0 0 0 0 0 0 0 0 0 0 0 0 1 1 1 1 1 1 1 1 1 0 0 0 0 0 0 0 0 0 0 0 0 0 0 0 0 0 0
0 0 0 0 0 0 0 0 0 0 0 0 0 0 0 0 0 1 1 1 1 1 1 1 1 1 0 0 0 0 0 0 0 0 0 0 0 0 0 0 0 0 0 0
0 0 0 0 0 0 0 0 0 0 0 0 0 0 0 0 0 0 1 1 1 1 1 1 1 0 0 0 0 0 0 0 0 0 0 0 0 0 0 0 0 0 0 0
0 0 0 0 0 0 0 0 0 0 0 0 0 0 0 0 0 0 0 0 0 1 1 0 0 0 0 0 0 0 0 0 0 0 0 0 0 0 0 0 0 0 0 0
0 0 0 0 0 0 0 0 0 0 0 0 0 0 0 0 0 0 0 0 0 0 0 0 0 0 0 0 0 0 0 0 0 0 0 0 0 0 0 0 0 0 0 0
0 0 0 0 0 0 0 0 0 0 0 0 0 0 0 0 0 0 0 0 0 0 0 0 0 0 0 0 0 0 0 0 0 0 0 0 0 0 0 0 0 0 0 0
0 0 0 0 0 0 0 0 0 0 0 0 0 0 0 0 0 0 0 0 0 0 0 0 0 0 0 0 0 0 0 0 0 0 0 0 0 0 0 0 0 0 0 0
0 0 0 0 0 0 0 0 0 0 0 0 0 0 0 0 0 0 0 0 0 0 0 0 0 0 0 0 0 0 0 0 0 0 0 0 0 0 0 0 0 0 0 0
0 0 0 0 0 0 0 0 0 0 0 0 0 0 0 0 0 0 0 0 0 0 0 0 0 0 0 0 0 0 0 0 0 0 0 0 0 0 0 0 0 0 0 0
0 0 0 0 0 0 0 0 0 0 0 0 0 0 0 0 0 0 0 0 0 0 0 0 0 0 0 0 0 0 0 0 0 0 0 0 0 0 0 0 0 0 0 0
0 0 0 0 0 0 0 0 0 0 0 0 0 0 0 0 0 0 0 0 0 0 0 0 0 0 0 0 0 0 0 0 0 0 0 0 0 0 0 0 0 0 0 0
0 0 0 0 0 0 0 0 0 0 0 0 0 0 0 0 0 0 0 0 0 0 0 0 0 0 0 0 0 0 0 0 0 0 0 0 0 0 0 0 0 0 0 0
0 0 0 0 0 0 0 0 0 0 0 0 0 0 0 0 0 0 0 0 0 0 0 0 0 0 0 0 0 0 0 0 0 0 0 0 0 0 0 0 0 0 0 0
0 0 0 0 0 0 0 0 0 0 0 0 0 0 0 0 0 0 0 0 0 0 0 0 0 0 0 0 0 0 0 0 0 0 0 0 0 0 0 0 0 0 0 0
0 0 0 0 0 0 0 0 0 0 0 0 0 0 0 0 0 0 0 0 0 0 0 0 0 0 0 0 0 0 0 0 0 0 0 0 0 0 0 0 0 0 0 0
0 0 0 0 0 0 0 0 0 0 0 0 0 0 0 0 0 0 0 0 0 0 0 0 0 0 0 0 0 0 0 0 0 0 0 0 0 0 0 0 0 0 0 0
0 0 0 0 0 0 0 0 0 0 0 0 0 0 0 0 0 0 0 0 0 0 0 0 0 0 0 0 0 0 0 0 0 0 0 0 0 0 0 0 0 0 0 0
Wind_Speed
11 12 11 11 13 11 9 9 10 9 8 9 8 11 12 13 13 13 13 13 14 13 12 11 10 9 8 7 6 5 5 4 2 1 1 1 1 1 2 2 2 2 2 3
10 12 11 10 11 11 10 9 7 6 7 7 7 10 12 14 13 13 13 13 14 14 13 11 10 9 8 7 6 5 4 4 3 2 1 1 1 1 2 1 2 2 3 3
11 7 8 9 10 11 11 8 9 8 8 8 7 8 10 11 11 12 13 15 15 15 14 12 11 9 8 7 6 5 5 4 4 3 2 2 1 1 1 2 2 2 3 3
8 7 6 8 8 8 6 6 6 9 9 6 7 6 9 10 9 11 12 14 15 15 14 13 11 10 9 8 7 6 5 4 4 3 3 2 1 1 1 1 1 1 2 2
6 7 6 7 8 7 7 7 9 9 8 7 8 7 7 9 10 10 11 12 13 15 14 13 12 10 9 9 7 6 5 5 4 4 4 3 3 2 2 1 1 1 1 3
8 7 6 7 8 8 6 6 8 7 6 10 9 9 7 8 9 10 10 10 11 14 14 14 12 11 9 8 8 7 6 5 5 5 5 5 5 4 3 3 2 1 2 2
6 7 6 5 6 5 5 5 4 5 5 8 6 6 2 4 6 8 10 11 12 13 14 14 13 11 9 8 8 7 6 5 5 5 5 5 4 3 4 3 3 3 3 3
5 7 6 5 6 4 5 5 5 4 5 6 4 4 1 2 5 8 10 11 12 12 13 13 12 10 9 9 8 8 6 6 5 5 4 4 4 3 3 4 3 3 3 3
5 7 6 6 7 6 6 6 5 5 8 6 3 2 2 2 6 8 11 12 11 11 12 12 11 9 9 8 7 7 6 5 5 4 4 4 4 4 4 3 4 3 3 3
6 5 6 7 8 8 6 4 3 4 6 6 2 2 1 3 5 8 10 11 11 11 11 12 10 9 8 7 7 7 6 5 5 4 3 4 4 4 4 4 4 4 4 4
4 6 6 5 3 5 6 5 3 3 5 5 3 0 1 4 7 8 9 10 10 10 11 10 9 9 8 7 7 6 5 5 4 4 4 4 4 4 4 3 4 4 4 3
2 4 5 5 3 5 7 7 4 4 5 4 3 2 4 5 7 8 9 10 9 9 9 9 8 8 7 6 5 5 4 4 3 3 4 4 4 4 4 4 4 3 3 3
3 2 5 4 1 4 6 7 5 4 3 3 3 2 4 7 8 8 9 9 9 9 8 8 7 6 5 5 4 4 3 3 3 3 4 4 4 4 4 3 3 3 3 3
3 4 5 5 3 3 6 8 6 4 3 2 1 5 5 5 8 9 9 9 8 7 6 7 6 5 5 4 4 3 2 2 3 4 4 4 4 3 3 3 3 3 3 4
2 5 5 5 5 3 3 5 5 5 4 2 4 6 5 4 7 9 9 9 8 7 6 7 6 5 4 4 3 3 3 2 3 4 4 3 3 3 3 3 3 3 4 4
1 3 6 6 5 1 1 3 4 4 5 5 7 7 7 7 8 8 8 8 7 6 6 6 5 4 4 4 3 3 2 3 3 3 3 2 3 3 2 2 3 3 4 4
2 3 5 5 3 1 2 4 3 5 7 6 6 6 8 7 7 6 6 6 6 6 6 6 5 4 3 4 3 3 3 3 3 3 3 3 3 3 2 3 3 3 3 4
3 3 3 4 4 1 3 5 5 7 9 8 8 7 8 7 7 7 6 6 6 6 6 6 5 4 3 4 4 3 3 3 3 3 3 3 3 3 3 3 3 3 3 3
3 3 3 2 1 2 2 3 3 4 7 7 7 7 7 9 8 7 6 6 6 7 6 5 5 5 4 4 4 4 3 3 3 3 3 3 3 2 2 2 2 2 2 2
4 3 3 2 1 1 3 4 2 2 5 6 6 5 5 4 2 4 5 6 7 7 6 5 5 5 5 4 4 4 3 3 4 3 3 3 2 2 2 2 2 2 1 2
3 3 3 2 0 3 3 4 2 1 4 5 6 6 5 5 5 7 7 7 7 7 6 6 5 5 4 4 4 4 4 3 3 3 3 2 2 2 2 2 1 1 1 2
1 2 1 1 1 3 7 5 5 5 5 6 6 8 9 9 10 9 9 8 7 7 6 5 5 5 4 3 4 4 4 3 3 3 3 2 2 1 2 1 1 1 1 1
3 4 4 5 5 6 7 8 7 6 6 7 7 8 8 8 9 10 9 8 7 7 6 5 5 5 4 4 3 4 3 3 3 3 2 2 2 2 1 0 0 0 0 0
5 4 5 6 8 8 9 9 7 7 7 8 8 8 8 8 9 9 8 7 7 7 6 5 5 5 5 4 3 3 3 3 3 3 2 1 1 2 1 1 1 2 3 2
4 3 5 8 8 8 8 7 8 8 9 8 8 8 8 8 9 8 7 7 6 6 5 5 4 4 5 5 3 3 3 3 3 2 1 1 1 2 2 3 4 4 5 4
5 4 3 5 6 6 6 7 8 8 8 8 8 8 8 8 8 8 7 6 6 6 6 5 4 4 4 4 4 3 3 3 3 2 1 1 1 1 1 2 3 5 4 4
Wind_Direction
212 228 230 218 222 234 229 221 212 217 212 218 173 159 177 189 177 168 156 152 147 134 130 126 121 116 109 102 96 85 72 62 47 47 59 104 103 103 93 84 60 23 342 333
219 230 241 236 230 240 239 227 214 220 210 219 189 177 183 194 183 170 165 156 144 139 138 135 131 123 116 107 96 87 74 58 42 37 26 53 71 92 112 83 55 21 354 350
230 236 234 237 235 236 243 228 199 212 195 203 196 194 189 191 184 177 170 156 150 152 148 145 138 131 124 115 104 89 69 52 39 27 38 52 72 66 84 82 63 26 11 12
233 236 234 230 240 239 249 244 216 213 213 205 211 218 198 190 189 187 176 163 160 155 148 147 142 137 130 121 108 94 82 64 47 44 49 52 72 66 51 55 82 43 30 24
242 221 227 238 241 242 246 240 242 233 226 233 218 230 219 192 192 200 191 172 162 151 149 145 140 133 124 117 111 103 90 73 56 55 59 48 58 59 61 53 82 64 66 48
260 243 226 230 240 245 251 246 246 251 245 244 238 241 220 197 197 201 190 166 150 145 142 136 131 125 122 120 115 107 97 81 67 61 58 55 59 55 46 31 26 28 55 57
275 257 244 234 242 243 262 260 252 248 242 258 288 267 255 194 177 190 176 159 147 144 138 136 135 132 130 125 119 114 109 96 83 72 63 58 56 57 51 29 29 29 38 44
256 256 250 250 253 255 253 247 244 252 260 266 273 266 234 218 159 163 149 136 135 137 136 134 135 133 132 127 122 114 107 97 88 80 68 57 49 50 50 30 22 33 34 38
250 243 247 248 245 252 235 250 267 278 276 266 220 206 144 128 113 118 120 124 130 128 127 130 132 131 125 119 114 114 111 106 99 92 86 77 65 55 47 35 30 30 20 27
275 265 249 252 253 258 259 245 269 267 284 287 245 195 184 120 108 116 119 120 118 119 125 131 132 128 123 120 115 113 113 107 98 93 84 84 73 63 50 42 39 28 19 17
285 282 255 237 261 283 284 265 262 274 277 290 295 63 35 161 137 129 123 119 120 123 128 131 129 125 125 123 121 118 111 108 104 95 85 82 77 68 57 44 37 28 15 7
295 304 292 267 270 290 282 284 277 277 289 303 312 55 20 95 106 118 118 117 116 115 122 124 124 125 128 127 120 114 113 113 108 103 98 86 74 66 55 46 35 27 18 16
332 306 284 265 302 325 305 302 296 291 297 290 293 106 60 88 100 101 105 108 108 109 113 118 119 123 125 123 118 115 116 114 112 104 95 85 73 65 54 42 31 21 23 25
289 281 282 283 279 250 284 298 319 326 305 310 65 118 92 95 106 108 109 110 111 109 109 118 117 115 117 115 113 111 103 101 104 96 96 90 78 70 55 42 30 26 31 32
284 281 280 273 264 237 265 312 342 0 353 5 80 102 105 107 108 112 116 116 115 114 111 113 114 114 111 114 116 116 111 91 89 92 97 93 86 77 61 46 35 30 32 36
189 283 287 272 256 213 356 348 357 15 22 51 79 88 98 98 100 105 116 125 129 129 122 116 111 113 121 133 136 131 117 103 96 91 88 85 86 77 63 51 47 39 38 33
219 241 274 281 293 290 360 359 28 45 33 35 59 89 103 96 97 109 125 132 131 129 127 122 121 116 123 134 131 121 109 100 98 97 96 88 82 71 56 52 50 43 40 38
238 264 271 282 292 253 51 33 45 70 59 63 78 88 94 96 95 96 114 124 124 123 122 124 125 121 123 127 126 125 118 113 112 106 98 89 78 69 54 50 49 47 36 32
199 253 277 281 280 112 95 37 27 76 72 57 79 90 97 102 97 88 91 110 123 125 123 125 131 130 127 126 124 124 121 118 108 100 95 89 84 72 62 61 51 48 45 39
186 219 249 257 285 43 52 36 25 101 96 55 71 89 96 121 115 104 92 97 110 114 117 120 126 122 120 119 119 123 117 108 104 100 89 80 74 75 75 62 52 53 45 46
205 219 240 265 60 91 26 1 319 359 79 57 65 79 85 64 71 111 110 105 107 110 113 119 123 121 122 124 125 124 120 117 110 113 114 105 82 81 87 70 58 57 59 56
314 303 313 312 107 75 15 36 50 75 84 79 79 89 89 92 102 110 111 113 118 120 121 124 124 122 125 124 122 119 121 128 118 111 109 104 92 92 96 97 53 53 75 85
45 39 33 49 81 90 69 77 83 92 92 92 94 100 104 109 111 115 116 120 123 124 127 128 128 122 123 128 128 122 122 116 110 110 112 107 90 80 79 68 90 30 142 306
106 81 102 100 105 103 97 97 96 92 92 94 100 109 112 113 119 124 127 129 129 128 130 135 134 135 134 133 133 127 125 113 113 119 113 103 103 107 66 1 16 31 24 20
75 93 99 110 119 114 101 104 101 100 100 99 102 104 107 116 121 126 129 132 132 129 130 137 136 133 133 137 138 131 126 129 128 124 126 133 111 96 80 62 39 44 53 45
54 75 109 115 126 117 116 111 110 109 106 107 109 108 112 116 120 123 126 127 131 134 136 138 137 133 132 137 134 132 133 132 135 145 160 151 120 128 148 134 107 62 79 91